OK1PNK-5 Weather Reports


time (UTC)temp
C
wind
direction
speed
KPH
gust
KPH
rain 1hr
cm
rain 24hr
cm
rain mn
cm
humidity
%
barometer
mb
20260507120955 16 222 9.7 22.5 0.00 0.00 0.00 71 970.9
20260507115955 16 222 9.7 22.5 0.00 0.00 0.00 71 970.9
20260507114955 16 229 9.7 30.6 0.00 0.00 0.00 72 970.8
20260507113955 15 270 6.4 19.3 0.00 0.00 0.00 72 970.7
20260507112955 15 270 6.4 19.3 0.00 0.00 0.00 72 970.7
20260507111955 15 270 6.4 19.3 0.00 0.00 0.00 72 970.7
20260507110955 15 270 6.4 19.3 0.00 0.00 0.00 72 970.7
20260507105955 15 270 6.4 19.3 0.00 0.00 0.00 72 970.7
20260507104955 16 254 8.0 19.3 0.00 0.00 0.00 72 970.7
20260507103955 16 254 8.0 19.3 0.00 0.00 0.00 72 970.7
20260507102955 16 228 9.7 22.5 0.00 0.00 0.00 72 970.7
20260507101955 16 217 8.0 19.3 0.00 0.00 0.00 72 970.7
20260507100955 16 229 8.0 17.7 0.00 0.00 0.00 72 970.8
20260507095955 16 229 8.0 17.7 0.00 0.00 0.00 72 970.8
20260507094955 16 211 12.9 25.7 0.00 0.00 0.00 74 970.5
20260507093955 15 213 11.3 25.7 0.00 0.00 0.00 76 970.3
20260507092955 15 213 11.3 25.7 0.00 0.00 0.00 76 970.3
20260507091955 15 213 11.3 25.7 0.00 0.00 0.00 76 970.3
20260507090955 15 213 11.3 25.7 0.00 0.00 0.00 76 970.3
20260507085955 15 213 11.3 25.7 0.00 0.00 0.00 76 970.3
20260507084955 14 215 11.3 27.4 0.00 0.00 0.00 77 970.2
20260507083955 14 215 11.3 27.4 0.00 0.00 0.00 77 970.2
20260507082955 13 212 17.7 30.6 0.00 0.00 0.00 79 970.1
20260507081955 13 210 17.7 33.8 0.00 0.00 0.00 80 970.0
20260507080955 13 210 17.7 33.8 0.00 0.00 0.00 80 970.0
20260507075955 13 212 11.3 27.4 0.00 0.00 0.00 80 969.8
20260507074955 13 210 11.3 27.4 0.00 0.00 0.00 81 969.7
20260507073955 13 210 11.3 27.4 0.00 0.00 0.00 81 969.7
20260507072955 13 224 9.7 17.7 0.00 0.00 0.00 82 969.6
20260507071955 12 226 6.4 17.7 0.00 0.00 0.00 83 969.5
20260507070955 12 226 6.4 17.7 0.00 0.00 0.00 83 969.5
20260507065955 12 225 8.0 17.7 0.00 0.00 0.00 85 969.3
20260507064955 12 223 9.7 20.9 0.00 0.00 0.00 85 969.3
20260507063955 12 223 9.7 20.9 0.00 0.00 0.00 85 969.3
20260507062955 12 245 9.7 27.4 0.00 0.00 0.00 86 969.1
20260507061955 12 231 6.4 17.7 0.00 0.00 0.00 87 969.1
20260507060954 12 223 9.7 22.5 0.00 0.00 0.00 87 969.0
20260507055955 12 211 9.7 22.5 0.00 0.00 0.00 87 968.8
20260507054955 12 215 9.7 20.9 0.00 0.00 0.00 87 968.8
20260507053954 12 221 6.4 14.5 0.00 0.00 0.00 88 968.2
20260507052955 12 221 6.4 14.5 0.00 0.00 0.00 88 968.2
20260507051955 12 221 6.4 14.5 0.00 0.00 0.00 88 968.2
20260507050954 12 221 6.4 14.5 0.00 0.00 0.00 88 968.2
20260507045955 12 221 6.4 14.5 0.00 0.00 0.00 88 968.2
20260507044955 12 215 6.4 14.5 0.00 0.00 0.00 88 968.1
20260507043954 12 222 6.4 12.9 0.00 0.00 0.00 88 968.0
20260507042955 12 222 6.4 14.5 0.00 0.00 0.00 88 967.9
20260507041954 12 219 4.8 12.9 0.00 0.00 0.00 88 967.8
20260507040954 12 225 4.8 12.9 0.00 0.00 0.00 88 967.8
20260507034955 12 218 3.2 6.4 0.00 0.00 0.00 88 967.7
20260507033954 12 221 3.2 9.7 0.00 0.00 0.00 88 967.6
20260507032954 12 227 3.2 8.0 0.00 0.00 0.00 88 967.6
20260507031954 12 225 3.2 11.3 0.00 0.00 0.00 88 967.6
20260507030954 12 230 3.2 8.0 0.00 0.00 0.00 88 967.6
20260507025954 12 270 3.2 8.0 0.00 0.00 0.00 88 967.4
20260507024954 12 251 3.2 9.7 0.00 0.00 0.00 88 967.4
20260507023954 12 225 4.8 11.3 0.00 0.00 0.00 88 967.3
20260507022955 12 225 4.8 12.9 0.00 0.00 0.00 88 967.3
20260507021954 12 225 4.8 12.9 0.00 0.00 0.00 88 967.3
20260507020955 12 214 6.4 9.7 0.00 0.00 0.00 87 967.1
20260507015954 12 215 6.4 14.5 0.00 0.00 0.00 87 966.9
20260507014954 12 215 6.4 14.5 0.00 0.00 0.00 87 966.9
20260507013954 12 210 9.7 14.5 0.00 0.00 0.00 87 966.9
20260507012955 12 213 8.0 11.3 0.00 0.00 0.00 86 966.7
20260507011954 12 213 8.0 11.3 0.00 0.00 0.00 86 966.7
20260507010954 12 218 3.2 8.0 0.00 0.00 0.00 85 966.6
20260507005954 12 270 3.2 4.8 0.00 0.00 0.00 85 966.6
20260507004954 12 270 3.2 4.8 0.00 0.00 0.00 85 966.6
20260507003955 12 225 3.2 6.4 0.00 0.00 0.00 85 966.6
20260507002954 12 228 1.6 3.2 0.00 0.00 0.00 85 966.6
20260507001954 12 228 1.6 3.2 0.00 0.00 0.00 85 966.6
20260507000954 12 232 3.2 8.0 0.00 0.00 0.00 85 966.5
20260506235954 12 220 3.2 6.4 0.00 0.00 0.00 85 966.6
20260506234954 12 245 3.2 11.3 0.00 0.00 0.00 85 966.6
20260506233954 12 245 3.2 11.3 0.00 0.00 0.00 85 966.6
20260506232954 13 218 3.2 9.7 0.00 0.00 0.00 85 966.4
20260506231954 13 225 3.2 11.3 0.00 0.00 0.00 85 966.2
20260506230954 13 225 3.2 11.3 0.00 0.00 0.00 85 966.2
20260506225954 13 218 3.2 11.3 0.00 0.00 0.00 85 966.0
20260506224954 13 209 3.2 9.7 0.00 0.00 0.00 84 966.0
20260506223954 13 209 3.2 9.7 0.00 0.00 0.00 84 966.0
20260506222954 13 213 3.2 4.8 0.00 0.00 0.00 84 965.8
20260506221955 13 239 3.2 6.4 0.00 0.00 0.00 85 965.7
20260506220954 14 270 3.2 8.0 0.00 0.00 1.57 86 965.8
20260506215954 14 270 3.2 8.0 0.00 0.00 1.57 86 965.8
20260506214954 13 270 3.2 4.8 0.00 0.00 1.57 86 965.9
20260506213954 13 243 3.2 6.4 0.00 0.00 1.57 86 965.9
20260506212954 13 243 3.2 6.4 0.00 0.00 1.57 86 965.9
20260506211954 13 270 4.8 9.7 0.00 0.00 1.57 86 966.0
20260506210954 13 180 3.2 6.4 0.05 0.00 1.57 86 965.2
20260506205954 13 180 3.2 6.4 0.43 0.00 1.57 86 965.2
20260506204954 14 327 1.6 4.8 1.07 0.00 1.57 86 965.1
20260506203954 14 335 3.2 6.4 1.42 0.00 1.57 85 965.0
20260506202954 14 335 3.2 6.4 1.55 0.00 1.57 85 965.0
20260506201954 16 266 8.0 17.7 0.03 0.00 0.03 74 965.1
20260506200954 16 266 8.0 17.7 0.03 0.00 0.03 74 965.1
20260506195955 16 266 8.0 17.7 0.03 0.00 0.03 74 965.1
20260506194954 16 266 8.0 17.7 0.03 0.00 0.03 74 965.1
20260506193954 16 266 8.0 17.7 0.03 0.00 0.03 74 965.1
20260506192954 16 266 8.0 17.7 0.03 0.00 0.03 74 965.1
20260506191954 17 299 3.2 8.0 0.00 0.00 0.00 70 963.9
20260506190954 17 90 1.6 6.4 0.00 0.00 0.00 69 964.0
20260506185954 17 90 1.6 6.4 0.00 0.00 0.00 69 964.0
20260506184954 17 333 1.6 4.8 0.00 0.00 0.00 68 963.4
20260506183954 17 327 1.6 3.2 0.00 0.00 0.00 68 963.2
20260506182954 17 327 1.6 3.2 0.00 0.00 0.00 68 963.2
20260506181954 17 315 1.6 3.2 0.00 0.00 0.00 68 963.1
20260506180954 18 326 3.2 8.0 0.00 0.00 0.00 69 962.8
20260506175954 18 326 3.2 8.0 0.00 0.00 0.00 69 962.8
20260506174954 18 319 3.2 9.7 0.00 0.00 0.00 68 962.7
20260506173954 19 313 6.4 14.5 0.00 0.00 0.00 69 962.5
20260506172954 19 313 6.4 14.5 0.00 0.00 0.00 69 962.5
20260506171954 19 319 6.4 17.7 0.00 0.00 0.00 69 962.5
20260506170954 19 308 6.4 14.5 0.00 0.00 0.00 68 962.5
20260506165954 20 305 4.8 14.5 0.00 0.00 0.00 68 962.5
20260506164954 20 305 4.8 14.5 0.00 0.00 0.00 68 962.5
20260506163954 20 307 4.8 12.9 0.00 0.00 0.00 67 962.4
20260506162954 20 315 3.2 9.7 0.00 0.00 0.00 65 962.5
20260506161954 20 336 3.2 8.0 0.00 0.00 0.00 64 962.5
20260506160954 20 336 3.2 8.0 0.00 0.00 0.00 64 962.5
20260506155954 20 327 3.2 11.3 0.00 0.00 0.00 64 962.6
20260506154954 20 123 1.6 6.4 0.00 0.00 0.00 63 962.6
20260506153954 21 239 3.2 4.8 0.00 0.00 0.00 62 962.7
20260506152954 21 98 3.2 8.0 0.00 0.00 0.00 63 962.8
20260506151954 21 104 4.8 14.5 0.00 0.00 0.00 63 962.9
20260506150954 21 103 9.7 20.9 0.00 0.00 0.00 63 963.2
20260506145954 21 103 9.7 20.9 0.00 0.00 0.00 63 963.2
20260506144954 21 114 8.0 14.5 0.00 0.00 0.00 62 963.2
20260506143954 21 330 3.2 9.7 0.00 0.00 0.00 59 963.3
20260506142954 21 330 3.2 9.7 0.00 0.00 0.00 59 963.3
20260506141954 21 353 3.2 8.0 0.00 0.00 0.00 59 963.4
20260506140954 21 323 3.2 11.3 0.00 0.00 0.00 59 963.5
20260506135954 21 323 3.2 11.3 0.00 0.00 0.00 59 963.5
20260506134954 22 59 1.6 4.8 0.00 0.00 0.00 59 963.7
20260506133954 22 90 4.8 17.7 0.00 0.00 0.00 60 963.8
20260506132954 22 81 3.2 9.7 0.00 0.00 0.00 61 963.7
20260506131954 21 59 4.8 14.5 0.00 0.00 0.00 61 963.7
20260506130954 21 327 3.2 8.0 0.00 0.00 0.00 61 963.7
20260506125954 21 194 1.6 6.4 0.00 0.00 0.00 61 963.9
20260506124954 21 278 4.8 12.9 0.00 0.00 0.00 60 963.9
20260506123954 21 341 3.2 8.0 0.00 0.00 0.00 62 964.0
20260506122954 20 90 1.6 6.4 0.00 0.00 0.00 61 964.2
20260506121954 20 254 3.2 8.0 0.00 0.00 0.00 61 964.5